Year,Month,Day,Hour,Minute,Value (Times are PST for temperature in C)
2009,07,04,00,00,20.80
2009,07,04,00,01,20.80
2009,07,04,00,02,20.80
2009,07,04,00,03,20.80
2009,07,04,00,04,20.80
2009,07,04,00,05,20.80
2009,07,04,00,06,20.80
2009,07,04,00,07,20.80
2009,07,04,00,08,20.80
2009,07,04,00,09,20.70
2009,07,04,00,10,20.70
2009,07,04,00,11,20.70
2009,07,04,00,12,20.70
2009,07,04,00,13,20.70
2009,07,04,00,14,20.60
2009,07,04,00,15,20.60
2009,07,04,00,16,20.60
2009,07,04,00,17,20.60
2009,07,04,00,18,20.50
2009,07,04,00,19,20.50
2009,07,04,00,20,20.50
2009,07,04,00,21,20.40
2009,07,04,00,22,20.40
2009,07,04,00,23,20.40
2009,07,04,00,24,20.40
2009,07,04,00,25,20.40
2009,07,04,00,26,20.30
2009,07,04,00,27,20.30
2009,07,04,00,28,20.30
2009,07,04,00,29,20.30
2009,07,04,00,30,20.20
2009,07,04,00,31,20.20
2009,07,04,00,32,20.20
2009,07,04,00,33,20.10
2009,07,04,00,34,20.10
2009,07,04,00,35,20.00
2009,07,04,00,36,20.00
2009,07,04,00,37,20.00
2009,07,04,00,38,20.00
2009,07,04,00,39,20.00
2009,07,04,00,40,19.90
2009,07,04,00,41,19.90
2009,07,04,00,42,19.90
2009,07,04,00,43,19.90
2009,07,04,00,44,19.90
2009,07,04,00,45,19.90
2009,07,04,00,46,19.90
2009,07,04,00,47,19.80
2009,07,04,00,48,19.80
2009,07,04,00,49,19.80
2009,07,04,00,50,19.80
2009,07,04,00,51,19.80
2009,07,04,00,52,19.70
2009,07,04,00,53,19.70
2009,07,04,00,54,19.60
2009,07,04,00,55,19.60
2009,07,04,00,56,19.50
2009,07,04,00,57,19.50
2009,07,04,00,58,19.40
2009,07,04,00,59,19.40
2009,07,04,01,00,19.30
2009,07,04,01,01,19.30
2009,07,04,01,02,19.20
2009,07,04,01,03,19.20
2009,07,04,01,04,19.10
2009,07,04,01,05,19.00
2009,07,04,01,06,18.90
2009,07,04,01,07,18.90
2009,07,04,01,08,18.80
2009,07,04,01,09,18.80
2009,07,04,01,10,18.80
2009,07,04,01,11,18.80
2009,07,04,01,12,18.70
2009,07,04,01,13,18.70
2009,07,04,01,14,18.70
2009,07,04,01,15,18.70
2009,07,04,01,16,18.70
2009,07,04,01,17,18.70
2009,07,04,01,18,18.70
2009,07,04,01,19,18.70
2009,07,04,01,20,18.70
2009,07,04,01,21,18.80
2009,07,04,01,22,18.80
2009,07,04,01,23,18.80
2009,07,04,01,24,18.90
2009,07,04,01,25,18.90
2009,07,04,01,26,19.00
2009,07,04,01,27,19.00
2009,07,04,01,28,19.10
2009,07,04,01,29,19.10
2009,07,04,01,30,19.20
2009,07,04,01,31,19.20
2009,07,04,01,32,19.20
2009,07,04,01,33,19.30
2009,07,04,01,34,19.30
2009,07,04,01,35,19.30
2009,07,04,01,36,19.30
2009,07,04,01,37,19.30
2009,07,04,01,38,19.30
2009,07,04,01,39,19.30
2009,07,04,01,40,19.30
2009,07,04,01,41,19.30
2009,07,04,01,42,19.30
2009,07,04,01,43,19.30
2009,07,04,01,44,19.30
2009,07,04,01,45,19.30
2009,07,04,01,46,19.20
2009,07,04,01,47,19.20
2009,07,04,01,48,19.20
2009,07,04,01,49,19.20
2009,07,04,01,50,19.10
2009,07,04,01,51,19.10
2009,07,04,01,52,19.00
2009,07,04,01,53,19.00
2009,07,04,01,54,18.90
2009,07,04,01,55,18.90
2009,07,04,01,56,18.90
2009,07,04,01,57,18.90
2009,07,04,01,58,18.90
2009,07,04,01,59,18.90
2009,07,04,02,00,18.90
2009,07,04,02,01,18.90
2009,07,04,02,02,18.90
2009,07,04,02,03,18.80
2009,07,04,02,04,18.80
2009,07,04,02,05,18.80
2009,07,04,02,06,18.80
2009,07,04,02,07,18.80
2009,07,04,02,08,18.80
2009,07,04,02,09,18.70
2009,07,04,02,10,18.70
2009,07,04,02,11,18.70
2009,07,04,02,12,18.70
2009,07,04,02,13,18.60
2009,07,04,02,14,18.60
2009,07,04,02,15,18.60
2009,07,04,02,16,18.60
2009,07,04,02,17,18.50
2009,07,04,02,18,18.50
2009,07,04,02,19,18.40
2009,07,04,02,20,18.40
2009,07,04,02,21,18.30
2009,07,04,02,22,18.30
2009,07,04,02,23,18.20
2009,07,04,02,24,18.20
2009,07,04,02,25,18.10
2009,07,04,02,26,18.00
2009,07,04,02,27,18.00
2009,07,04,02,28,17.90
2009,07,04,02,29,17.80
2009,07,04,02,30,17.80
2009,07,04,02,31,17.70
2009,07,04,02,32,17.60
2009,07,04,02,33,17.50
2009,07,04,02,34,17.50
2009,07,04,02,35,17.40
2009,07,04,02,36,17.30
2009,07,04,02,37,17.30
2009,07,04,02,38,17.20
2009,07,04,02,39,17.20
2009,07,04,02,40,17.10
2009,07,04,02,41,17.10
2009,07,04,02,42,17.10
2009,07,04,02,43,17.10
2009,07,04,02,44,17.10
2009,07,04,02,45,17.10
2009,07,04,02,46,17.10
2009,07,04,02,47,17.20
2009,07,04,02,48,17.20
2009,07,04,02,49,17.20
2009,07,04,02,50,17.20
2009,07,04,02,51,17.20
2009,07,04,02,52,17.30
2009,07,04,02,53,17.30
2009,07,04,02,54,17.40
2009,07,04,02,55,17.40
2009,07,04,02,56,17.40
2009,07,04,02,57,17.50
2009,07,04,02,58,17.50
2009,07,04,02,59,17.60
2009,07,04,03,00,17.60
2009,07,04,03,01,17.60
2009,07,04,03,02,17.70
2009,07,04,03,03,17.70
2009,07,04,03,04,17.80
2009,07,04,03,05,17.80
2009,07,04,03,06,17.80
2009,07,04,03,07,17.80
2009,07,04,03,08,17.80
2009,07,04,03,09,17.80
2009,07,04,03,10,17.80
2009,07,04,03,11,17.80
2009,07,04,03,12,17.80
2009,07,04,03,13,17.70
2009,07,04,03,14,17.70
2009,07,04,03,15,17.70
2009,07,04,03,16,17.70
2009,07,04,03,17,17.70
2009,07,04,03,18,17.70
2009,07,04,03,19,17.70
2009,07,04,03,20,17.70
2009,07,04,03,21,17.60
2009,07,04,03,22,17.60
2009,07,04,03,23,17.50
2009,07,04,03,24,17.40
2009,07,04,03,25,17.40
2009,07,04,03,26,17.20
2009,07,04,03,27,17.10
2009,07,04,03,28,17.00
2009,07,04,03,29,16.90
2009,07,04,03,30,16.90
2009,07,04,03,31,16.90
2009,07,04,03,32,17.00
2009,07,04,03,33,17.00
2009,07,04,03,34,17.00
2009,07,04,03,35,17.00
2009,07,04,03,36,17.10
2009,07,04,03,37,17.10
2009,07,04,03,38,17.10
2009,07,04,03,39,17.10
2009,07,04,03,40,17.00
2009,07,04,03,41,16.90
2009,07,04,03,42,16.90
2009,07,04,03,43,16.80
2009,07,04,03,44,16.80
2009,07,04,03,45,16.70
2009,07,04,03,46,16.60
2009,07,04,03,47,16.50
2009,07,04,03,48,16.40
2009,07,04,03,49,16.40
2009,07,04,03,50,16.30
2009,07,04,03,51,16.30
2009,07,04,03,52,16.30
2009,07,04,03,53,16.30
2009,07,04,03,54,16.30
2009,07,04,03,55,16.30
2009,07,04,03,56,16.40
2009,07,04,03,57,16.40
2009,07,04,03,58,16.40
2009,07,04,03,59,16.50
2009,07,04,04,00,16.60
2009,07,04,04,01,16.60
2009,07,04,04,02,16.60
2009,07,04,04,03,16.60
2009,07,04,04,04,16.60
2009,07,04,04,05,16.60
2009,07,04,04,06,16.60
2009,07,04,04,07,16.50
2009,07,04,04,08,16.50
2009,07,04,04,09,16.40
2009,07,04,04,10,16.40
2009,07,04,04,11,16.30
2009,07,04,04,12,16.20
2009,07,04,04,13,16.20
2009,07,04,04,14,16.20
2009,07,04,04,15,16.20
2009,07,04,04,16,16.20
2009,07,04,04,17,16.20
2009,07,04,04,18,16.30
2009,07,04,04,19,16.30
2009,07,04,04,20,16.30
2009,07,04,04,21,16.40
2009,07,04,04,22,16.40
2009,07,04,04,23,16.40
2009,07,04,04,24,16.40
2009,07,04,04,25,16.40
2009,07,04,04,26,16.50
2009,07,04,04,27,16.50
2009,07,04,04,28,16.50
2009,07,04,04,29,16.40
2009,07,04,04,30,16.40
2009,07,04,04,31,16.40
2009,07,04,04,32,16.40
2009,07,04,04,33,16.40
2009,07,04,04,34,16.40
2009,07,04,04,35,16.40
2009,07,04,04,36,16.40
2009,07,04,04,37,16.40
2009,07,04,04,38,16.40
2009,07,04,04,39,16.50
2009,07,04,04,40,16.60
2009,07,04,04,41,16.70
2009,07,04,04,42,16.80
2009,07,04,04,43,16.80
2009,07,04,04,44,16.90
2009,07,04,04,45,16.90
2009,07,04,04,46,17.00
2009,07,04,04,47,17.00
2009,07,04,04,48,17.10
2009,07,04,04,49,17.10
2009,07,04,04,50,17.20
2009,07,04,04,51,17.20
2009,07,04,04,52,17.30
2009,07,04,04,53,17.30
2009,07,04,04,54,17.30
2009,07,04,04,55,17.30
2009,07,04,04,56,17.30
2009,07,04,04,57,17.30
2009,07,04,04,58,17.30
2009,07,04,04,59,17.30
2009,07,04,05,00,17.30
2009,07,04,05,01,17.30
2009,07,04,05,02,17.20
2009,07,04,05,03,17.20
2009,07,04,05,04,17.20
2009,07,04,05,05,17.20
2009,07,04,05,06,17.20
2009,07,04,05,07,17.20
2009,07,04,05,08,17.20
2009,07,04,05,09,17.20
2009,07,04,05,10,17.20
2009,07,04,05,11,17.20
2009,07,04,05,12,17.20
2009,07,04,05,13,17.20
2009,07,04,05,14,17.20
2009,07,04,05,15,17.20
2009,07,04,05,16,17.20
2009,07,04,05,17,17.20
2009,07,04,05,18,17.20
2009,07,04,05,19,17.10
2009,07,04,05,20,17.10
2009,07,04,05,21,17.10
2009,07,04,05,22,17.10
2009,07,04,05,23,17.10
2009,07,04,05,24,17.10
2009,07,04,05,25,17.00
2009,07,04,05,26,17.00
2009,07,04,05,27,17.00
2009,07,04,05,28,17.00
2009,07,04,05,29,17.00
2009,07,04,05,30,17.00
2009,07,04,05,31,17.00
2009,07,04,05,32,17.00
2009,07,04,05,33,17.00
2009,07,04,05,34,17.00
2009,07,04,05,35,16.90
2009,07,04,05,36,16.90
2009,07,04,05,37,16.90
2009,07,04,05,38,16.80
2009,07,04,05,39,16.80
2009,07,04,05,40,16.70
2009,07,04,05,41,16.70
2009,07,04,05,42,16.60
2009,07,04,05,43,16.60
2009,07,04,05,44,16.50
2009,07,04,05,45,16.40
2009,07,04,05,46,16.40
2009,07,04,05,47,16.30
2009,07,04,05,48,16.20
2009,07,04,05,49,16.20
2009,07,04,05,50,16.10
2009,07,04,05,51,16.00
2009,07,04,05,52,16.00
2009,07,04,05,53,15.90
2009,07,04,05,54,15.90
2009,07,04,05,55,15.80
2009,07,04,05,56,15.80
2009,07,04,05,57,15.80
2009,07,04,05,58,15.80
2009,07,04,05,59,15.80
2009,07,04,06,00,15.80
2009,07,04,06,01,15.80
2009,07,04,06,02,15.80
2009,07,04,06,03,15.80
2009,07,04,06,04,15.80
2009,07,04,06,05,15.80
2009,07,04,06,06,15.80
2009,07,04,06,07,15.90
2009,07,04,06,08,16.00
2009,07,04,06,09,16.10
2009,07,04,06,10,16.10
2009,07,04,06,11,16.20
2009,07,04,06,12,16.20
2009,07,04,06,13,16.30
2009,07,04,06,14,16.30
2009,07,04,06,15,16.40
2009,07,04,06,16,16.50
2009,07,04,06,17,16.50
2009,07,04,06,18,16.60
2009,07,04,06,19,16.60
2009,07,04,06,20,16.60
2009,07,04,06,21,16.70
2009,07,04,06,22,16.70
2009,07,04,06,23,16.70
2009,07,04,06,24,16.80
2009,07,04,06,25,16.80
2009,07,04,06,26,16.80
2009,07,04,06,27,16.80
2009,07,04,06,28,16.80
2009,07,04,06,29,16.90
2009,07,04,06,30,16.90
2009,07,04,06,31,16.90
2009,07,04,06,32,16.90
2009,07,04,06,33,17.00
2009,07,04,06,34,17.00
2009,07,04,06,35,17.00
2009,07,04,06,36,17.00
2009,07,04,06,37,17.10
2009,07,04,06,38,17.10
2009,07,04,06,39,17.10
2009,07,04,06,40,17.10
2009,07,04,06,41,17.20
2009,07,04,06,42,17.20
2009,07,04,06,43,17.30
2009,07,04,06,44,17.30
2009,07,04,06,45,17.30
2009,07,04,06,46,17.40
2009,07,04,06,47,17.40
2009,07,04,06,48,17.50
2009,07,04,06,49,17.60
2009,07,04,06,50,17.60
2009,07,04,06,51,17.60
2009,07,04,06,52,17.70
2009,07,04,06,53,17.70
2009,07,04,06,54,17.80
2009,07,04,06,55,17.80
2009,07,04,06,56,17.90
2009,07,04,06,57,17.90
2009,07,04,06,58,18.00
2009,07,04,06,59,18.10
2009,07,04,07,00,18.10
2009,07,04,07,01,18.20
2009,07,04,07,02,18.20
2009,07,04,07,03,18.30
2009,07,04,07,04,18.30
2009,07,04,07,05,18.40
2009,07,04,07,06,18.40
2009,07,04,07,07,18.50
2009,07,04,07,08,18.50
2009,07,04,07,09,18.60
2009,07,04,07,10,18.60
2009,07,04,07,11,18.60
2009,07,04,07,12,18.70
2009,07,04,07,13,18.80
2009,07,04,07,14,18.80
2009,07,04,07,15,18.80
2009,07,04,07,16,18.90
2009,07,04,07,17,18.90
2009,07,04,07,18,19.00
2009,07,04,07,19,19.10
2009,07,04,07,20,19.10
2009,07,04,07,21,19.20
2009,07,04,07,22,19.20
2009,07,04,07,23,19.30
2009,07,04,07,24,19.30
2009,07,04,07,25,19.30
2009,07,04,07,26,19.40
2009,07,04,07,27,19.40
2009,07,04,07,28,19.40
2009,07,04,07,29,19.40
2009,07,04,07,30,19.40
2009,07,04,07,31,19.40
2009,07,04,07,32,19.40
2009,07,04,07,33,19.40
2009,07,04,07,34,19.40
2009,07,04,07,35,19.30
2009,07,04,07,36,19.30
2009,07,04,07,37,19.30
2009,07,04,07,38,19.40
2009,07,04,07,39,19.40
2009,07,04,07,40,19.40
2009,07,04,07,41,19.50
2009,07,04,07,42,19.50
2009,07,04,07,43,19.60
2009,07,04,07,44,19.60
2009,07,04,07,45,19.60
2009,07,04,07,46,19.70
2009,07,04,07,47,19.70
2009,07,04,07,48,19.70
2009,07,04,07,49,19.70
2009,07,04,07,50,19.80
2009,07,04,07,51,19.80
2009,07,04,07,52,19.80
2009,07,04,07,53,19.70
2009,07,04,07,54,19.80
2009,07,04,07,55,19.80
2009,07,04,07,56,19.80
2009,07,04,07,57,19.80
2009,07,04,07,58,19.80
2009,07,04,07,59,19.80
2009,07,04,08,00,19.80
2009,07,04,08,01,19.80
2009,07,04,08,02,19.70
2009,07,04,08,03,19.60
2009,07,04,08,04,19.60
2009,07,04,08,05,19.60
2009,07,04,08,06,19.60
2009,07,04,08,07,19.60
2009,07,04,08,08,19.70
2009,07,04,08,09,19.70
2009,07,04,08,10,19.80
2009,07,04,08,11,19.80
2009,07,04,08,12,19.80
2009,07,04,08,13,19.80
2009,07,04,08,14,19.80
2009,07,04,08,15,19.80
2009,07,04,08,16,19.90
2009,07,04,08,17,19.90
2009,07,04,08,18,19.90
2009,07,04,08,19,19.90
2009,07,04,08,20,19.90
2009,07,04,08,21,19.90
2009,07,04,08,22,19.90
2009,07,04,08,23,19.90
2009,07,04,08,24,19.90
2009,07,04,08,25,19.90
2009,07,04,08,26,19.90
2009,07,04,08,27,19.90
2009,07,04,08,28,19.90
2009,07,04,08,29,19.90
2009,07,04,08,30,19.90
2009,07,04,08,31,20.00
2009,07,04,08,32,20.00
2009,07,04,08,33,20.10
2009,07,04,08,34,20.10
2009,07,04,08,35,20.20
2009,07,04,08,36,20.20
2009,07,04,08,37,20.30
2009,07,04,08,38,20.30
2009,07,04,08,39,20.30
2009,07,04,08,40,20.30
2009,07,04,08,41,20.40
2009,07,04,08,42,20.40
2009,07,04,08,43,20.50
2009,07,04,08,44,20.60
2009,07,04,08,45,20.70
2009,07,04,08,46,20.80
2009,07,04,08,47,20.80
2009,07,04,08,48,20.90
2009,07,04,08,49,20.90
2009,07,04,08,50,20.90
2009,07,04,08,51,20.80
2009,07,04,08,52,20.70
2009,07,04,08,53,20.50
2009,07,04,08,54,20.40
2009,07,04,08,55,20.30
2009,07,04,08,56,20.30
2009,07,04,08,57,20.20
2009,07,04,08,58,20.20
2009,07,04,08,59,20.20
2009,07,04,09,00,20.30
2009,07,04,09,01,20.40
2009,07,04,09,02,20.50
2009,07,04,09,03,20.60
2009,07,04,09,04,20.60
2009,07,04,09,05,20.70
2009,07,04,09,06,20.80
2009,07,04,09,07,20.80
2009,07,04,09,08,20.80
2009,07,04,09,09,20.90
2009,07,04,09,10,20.90
2009,07,04,09,11,21.00
2009,07,04,09,12,21.00
2009,07,04,09,13,21.10
2009,07,04,09,14,21.10
2009,07,04,09,15,21.10
2009,07,04,09,16,21.20
2009,07,04,09,17,21.20
2009,07,04,09,18,21.20
2009,07,04,09,19,21.20
2009,07,04,09,20,21.10
2009,07,04,09,21,21.00
2009,07,04,09,22,21.00
2009,07,04,09,23,20.90
2009,07,04,09,24,20.80
2009,07,04,09,25,20.80
2009,07,04,09,26,20.90
2009,07,04,09,27,20.90
2009,07,04,09,28,20.90
2009,07,04,09,29,20.90
2009,07,04,09,30,20.90
2009,07,04,09,31,20.80
2009,07,04,09,32,20.80
2009,07,04,09,33,20.80
2009,07,04,09,34,20.80
2009,07,04,09,35,20.80
2009,07,04,09,36,20.80
2009,07,04,09,37,20.90
2009,07,04,09,38,20.90
2009,07,04,09,39,20.90
2009,07,04,09,40,20.90
2009,07,04,09,41,21.00
2009,07,04,09,42,21.10
2009,07,04,09,43,21.10
2009,07,04,09,44,21.10
2009,07,04,09,45,21.10
2009,07,04,09,46,21.10
2009,07,04,09,47,21.10
2009,07,04,09,48,21.00
2009,07,04,09,49,21.00
2009,07,04,09,50,20.90
2009,07,04,09,51,20.90
2009,07,04,09,52,20.80
2009,07,04,09,53,20.70
2009,07,04,09,54,20.80
2009,07,04,09,55,20.80
2009,07,04,09,56,20.80
2009,07,04,09,57,20.90
2009,07,04,09,58,21.10
2009,07,04,09,59,21.10
2009,07,04,10,00,21.20
2009,07,04,10,01,21.30
2009,07,04,10,02,21.30
2009,07,04,10,03,21.30
2009,07,04,10,04,21.30
2009,07,04,10,05,21.20
2009,07,04,10,06,21.00
2009,07,04,10,07,20.90
2009,07,04,10,08,20.80
2009,07,04,10,09,20.70
2009,07,04,10,10,20.70
2009,07,04,10,11,20.70
2009,07,04,10,12,20.60
2009,07,04,10,13,20.60
2009,07,04,10,14,20.60
2009,07,04,10,15,20.70
2009,07,04,10,16,20.80
2009,07,04,10,17,20.90
2009,07,04,10,18,21.10
2009,07,04,10,19,21.10
2009,07,04,10,20,21.20
2009,07,04,10,21,21.20
2009,07,04,10,22,21.20
2009,07,04,10,23,21.30
2009,07,04,10,24,21.40
2009,07,04,10,25,21.50
2009,07,04,10,26,21.60
2009,07,04,10,27,21.60
2009,07,04,10,28,21.60
2009,07,04,10,29,21.60
2009,07,04,10,30,21.60
2009,07,04,10,31,21.60
2009,07,04,10,32,21.60
2009,07,04,10,33,21.60
2009,07,04,10,34,21.50
2009,07,04,10,35,21.40
2009,07,04,10,36,21.40
2009,07,04,10,37,21.30
2009,07,04,10,38,21.20
2009,07,04,10,39,21.10
2009,07,04,10,40,21.10
2009,07,04,10,41,20.90
2009,07,04,10,42,20.80
2009,07,04,10,43,20.60
2009,07,04,10,44,20.50
2009,07,04,10,45,20.30
2009,07,04,10,46,20.30
2009,07,04,10,47,20.30
2009,07,04,10,48,20.30
2009,07,04,10,49,20.40
2009,07,04,10,50,20.40
2009,07,04,10,51,20.30
2009,07,04,10,52,20.20
2009,07,04,10,53,20.20
2009,07,04,10,54,20.20
2009,07,04,10,55,20.20
2009,07,04,10,56,20.30
2009,07,04,10,57,20.40
2009,07,04,10,58,20.50
2009,07,04,10,59,20.60
2009,07,04,11,00,20.70
2009,07,04,11,01,20.70
2009,07,04,11,02,20.80
2009,07,04,11,03,20.90
2009,07,04,11,04,20.90
2009,07,04,11,05,21.00
2009,07,04,11,06,21.00
2009,07,04,11,07,21.00
2009,07,04,11,08,21.00
2009,07,04,11,09,21.00
2009,07,04,11,10,20.90
2009,07,04,11,11,20.80
2009,07,04,11,12,20.80
2009,07,04,11,13,20.80
2009,07,04,11,14,20.80
2009,07,04,11,15,20.90
2009,07,04,11,16,20.90
2009,07,04,11,17,20.90
2009,07,04,11,18,20.90
2009,07,04,11,19,20.80
2009,07,04,11,20,20.80
2009,07,04,11,21,20.80
2009,07,04,11,22,20.90
2009,07,04,11,23,21.00
2009,07,04,11,24,21.10
2009,07,04,11,25,21.20
2009,07,04,11,26,21.30
2009,07,04,11,27,21.30
2009,07,04,11,28,21.20
2009,07,04,11,29,21.20
2009,07,04,11,30,21.30
2009,07,04,11,31,21.30
2009,07,04,11,32,21.40
2009,07,04,11,33,21.50
2009,07,04,11,34,21.60
2009,07,04,11,35,21.70
2009,07,04,11,36,21.80
2009,07,04,11,37,21.90
2009,07,04,11,38,21.90
2009,07,04,11,39,21.90
2009,07,04,11,40,21.90
2009,07,04,11,41,21.80
2009,07,04,11,42,21.80
2009,07,04,11,43,21.70
2009,07,04,11,44,21.70
2009,07,04,11,45,21.80
2009,07,04,11,46,21.90
2009,07,04,11,47,22.00
2009,07,04,11,48,22.00
2009,07,04,11,49,21.90
2009,07,04,11,50,21.90
2009,07,04,11,51,22.00
2009,07,04,11,52,22.10
2009,07,04,11,53,22.20
2009,07,04,11,54,22.40
2009,07,04,11,55,22.50
2009,07,04,11,56,22.50
2009,07,04,11,57,22.40
2009,07,04,11,58,22.40
2009,07,04,11,59,22.40
2009,07,04,12,00,22.50
2009,07,04,12,01,22.60
2009,07,04,12,02,22.60
2009,07,04,12,03,22.70
2009,07,04,12,04,22.80
2009,07,04,12,05,22.80
2009,07,04,12,06,22.90
2009,07,04,12,07,22.90
2009,07,04,12,08,22.90
2009,07,04,12,09,22.90
2009,07,04,12,10,22.80
2009,07,04,12,11,22.80
2009,07,04,12,12,22.80
2009,07,04,12,13,22.80
2009,07,04,12,14,22.60
2009,07,04,12,15,22.60
2009,07,04,12,16,22.60
2009,07,04,12,17,22.60
2009,07,04,12,18,22.60
2009,07,04,12,19,22.70
2009,07,04,12,20,22.80
2009,07,04,12,21,22.80
2009,07,04,12,22,22.80
2009,07,04,12,23,22.80
2009,07,04,12,24,22.80
2009,07,04,12,25,22.80
2009,07,04,12,26,22.80
2009,07,04,12,27,22.90
2009,07,04,12,28,23.00
2009,07,04,12,29,23.10
2009,07,04,12,30,23.20
2009,07,04,12,31,23.30
2009,07,04,12,32,23.30
2009,07,04,12,33,23.30
2009,07,04,12,34,23.40
2009,07,04,12,35,23.40
2009,07,04,12,36,23.50
2009,07,04,12,37,23.60
2009,07,04,12,38,23.60
2009,07,04,12,39,23.70
2009,07,04,12,40,23.60
2009,07,04,12,41,23.60
2009,07,04,12,42,23.60
2009,07,04,12,43,23.60
2009,07,04,12,44,23.60
2009,07,04,12,45,23.60
2009,07,04,12,46,23.50
2009,07,04,12,47,23.50
2009,07,04,12,48,23.50
2009,07,04,12,49,23.50
2009,07,04,12,50,23.50
2009,07,04,12,51,23.40
2009,07,04,12,52,23.30
2009,07,04,12,53,23.30
2009,07,04,12,54,23.30
2009,07,04,12,55,23.30
2009,07,04,12,56,23.10
2009,07,04,12,57,23.00
2009,07,04,12,58,22.90
2009,07,04,12,59,22.80
2009,07,04,13,00,22.80
2009,07,04,13,01,22.90
2009,07,04,13,02,23.00
2009,07,04,13,03,23.10
2009,07,04,13,04,23.20
2009,07,04,13,05,23.20
2009,07,04,13,06,23.20
2009,07,04,13,07,23.10
2009,07,04,13,08,23.10
2009,07,04,13,09,23.10
2009,07,04,13,10,23.00
2009,07,04,13,11,23.00
2009,07,04,13,12,23.00
2009,07,04,13,13,23.10
2009,07,04,13,14,23.20
2009,07,04,13,15,23.30
2009,07,04,13,16,23.40
2009,07,04,13,17,23.50
2009,07,04,13,18,23.60
2009,07,04,13,19,23.60
2009,07,04,13,20,23.50
2009,07,04,13,21,23.50
2009,07,04,13,22,23.50
2009,07,04,13,23,23.50
2009,07,04,13,24,23.60
2009,07,04,13,25,23.70
2009,07,04,13,26,23.80
2009,07,04,13,27,23.80
2009,07,04,13,28,23.80
2009,07,04,13,29,23.70
2009,07,04,13,30,23.70
2009,07,04,13,31,23.70
2009,07,04,13,32,23.70
2009,07,04,13,33,23.70
2009,07,04,13,34,23.70
2009,07,04,13,35,23.70
2009,07,04,13,36,23.70
2009,07,04,13,37,23.80
2009,07,04,13,38,23.90
2009,07,04,13,39,23.90
2009,07,04,13,40,24.00
2009,07,04,13,41,24.00
2009,07,04,13,42,24.10
2009,07,04,13,43,24.10
2009,07,04,13,44,24.20
2009,07,04,13,45,24.20
2009,07,04,13,46,24.20
2009,07,04,13,47,24.20
2009,07,04,13,48,24.20
2009,07,04,13,49,24.20
2009,07,04,13,50,24.20
2009,07,04,13,51,24.20
2009,07,04,13,52,24.30
2009,07,04,13,53,24.30
2009,07,04,13,54,24.40
2009,07,04,13,55,24.50
2009,07,04,13,56,24.60
2009,07,04,13,57,24.60
2009,07,04,13,58,24.70
2009,07,04,13,59,24.70
2009,07,04,14,00,24.70
2009,07,04,14,01,24.70
2009,07,04,14,02,24.80
2009,07,04,14,03,24.80
2009,07,04,14,04,24.80
2009,07,04,14,05,24.80
2009,07,04,14,06,24.80
2009,07,04,14,07,24.80
2009,07,04,14,08,24.90
2009,07,04,14,09,25.00
2009,07,04,14,10,25.10
2009,07,04,14,11,25.00
2009,07,04,14,12,25.00
2009,07,04,14,13,24.90
2009,07,04,14,14,24.80
2009,07,04,14,15,24.80
2009,07,04,14,16,24.90
2009,07,04,14,17,25.00
2009,07,04,14,18,25.10
2009,07,04,14,19,25.10
2009,07,04,14,20,25.20
2009,07,04,14,21,25.30
2009,07,04,14,22,25.40
2009,07,04,14,23,25.50
2009,07,04,14,24,25.60
2009,07,04,14,25,25.60
2009,07,04,14,26,25.60
2009,07,04,14,27,25.60
2009,07,04,14,28,25.60
2009,07,04,14,29,25.50
2009,07,04,14,30,25.60
2009,07,04,14,31,25.60
2009,07,04,14,32,25.60
2009,07,04,14,33,25.50
2009,07,04,14,34,25.40
2009,07,04,14,35,25.40
2009,07,04,14,36,25.50
2009,07,04,14,37,25.60
2009,07,04,14,38,25.60
2009,07,04,14,39,25.60
2009,07,04,14,40,25.50
2009,07,04,14,41,25.50
2009,07,04,14,42,25.50
2009,07,04,14,43,25.50
2009,07,04,14,44,25.60
2009,07,04,14,45,25.60
2009,07,04,14,46,25.60
2009,07,04,14,47,25.60
2009,07,04,14,48,25.60
2009,07,04,14,49,25.60
2009,07,04,14,50,25.60
2009,07,04,14,51,25.60
2009,07,04,14,52,25.60
2009,07,04,14,53,25.60
2009,07,04,14,54,25.60
2009,07,04,14,55,25.60
2009,07,04,14,56,25.60
2009,07,04,14,57,25.50
2009,07,04,14,58,25.50
2009,07,04,14,59,25.50
2009,07,04,15,00,25.60
2009,07,04,15,01,25.70
2009,07,04,15,02,25.70
2009,07,04,15,03,25.70
2009,07,04,15,04,25.60
2009,07,04,15,05,25.60
2009,07,04,15,06,25.60
2009,07,04,15,07,25.60
2009,07,04,15,08,25.70
2009,07,04,15,09,25.70
2009,07,04,15,10,25.70
2009,07,04,15,11,25.80
2009,07,04,15,12,25.90
2009,07,04,15,13,25.90
2009,07,04,15,14,25.90
2009,07,04,15,15,25.90
2009,07,04,15,16,25.90
2009,07,04,15,17,25.90
2009,07,04,15,18,25.90
2009,07,04,15,19,25.90
2009,07,04,15,20,25.90
2009,07,04,15,21,25.80
2009,07,04,15,22,25.90
2009,07,04,15,23,25.90
2009,07,04,15,24,25.90
2009,07,04,15,25,25.90
2009,07,04,15,26,25.90
2009,07,04,15,27,25.90
2009,07,04,15,28,25.80
2009,07,04,15,29,25.80
2009,07,04,15,30,25.80
2009,07,04,15,31,25.70
2009,07,04,15,32,25.70
2009,07,04,15,33,25.80
2009,07,04,15,34,25.80
2009,07,04,15,35,25.80
2009,07,04,15,36,25.90
2009,07,04,15,37,25.90
2009,07,04,15,38,26.00
2009,07,04,15,39,26.00
2009,07,04,15,40,26.10
2009,07,04,15,41,26.20
2009,07,04,15,42,26.30
2009,07,04,15,43,26.30
2009,07,04,15,44,26.30
2009,07,04,15,45,26.40
2009,07,04,15,46,26.30
2009,07,04,15,47,26.40
2009,07,04,15,48,26.40
2009,07,04,15,49,26.40
2009,07,04,15,50,26.50
2009,07,04,15,51,26.50
2009,07,04,15,52,26.50
2009,07,04,15,53,26.60
2009,07,04,15,54,26.60
2009,07,04,15,55,26.70
2009,07,04,15,56,26.70
2009,07,04,15,57,26.80
2009,07,04,15,58,26.90
2009,07,04,15,59,27.00
2009,07,04,16,00,27.10
2009,07,04,16,01,27.20
2009,07,04,16,02,27.10
2009,07,04,16,03,27.10
2009,07,04,16,04,27.00
2009,07,04,16,05,26.90
2009,07,04,16,06,26.90
2009,07,04,16,07,26.80
2009,07,04,16,08,26.70
2009,07,04,16,09,26.60
2009,07,04,16,10,26.60
2009,07,04,16,11,26.60
2009,07,04,16,12,26.60
2009,07,04,16,13,26.70
2009,07,04,16,14,26.80
2009,07,04,16,15,26.80
2009,07,04,16,16,26.90
2009,07,04,16,17,26.90
2009,07,04,16,18,27.00
2009,07,04,16,19,27.00
2009,07,04,16,20,27.00
2009,07,04,16,21,27.10
2009,07,04,16,22,27.20
2009,07,04,16,23,27.20
2009,07,04,16,24,27.10
2009,07,04,16,25,27.00
2009,07,04,16,26,26.90
2009,07,04,16,27,27.00
2009,07,04,16,28,27.00
2009,07,04,16,29,27.00
2009,07,04,16,30,27.00
2009,07,04,16,31,26.90
2009,07,04,16,32,27.00
2009,07,04,16,33,27.00
2009,07,04,16,34,27.10
2009,07,04,16,35,27.00
2009,07,04,16,36,26.90
2009,07,04,16,37,26.90
2009,07,04,16,38,26.90
2009,07,04,16,39,26.80
2009,07,04,16,40,26.80
2009,07,04,16,41,26.80
2009,07,04,16,42,26.80
2009,07,04,16,43,26.80
2009,07,04,16,44,26.80
2009,07,04,16,45,26.80
2009,07,04,16,46,26.80
2009,07,04,16,47,26.70
2009,07,04,16,48,26.70
2009,07,04,16,49,26.80
2009,07,04,16,50,26.80
2009,07,04,16,51,26.80
2009,07,04,16,52,26.80
2009,07,04,16,53,26.80
2009,07,04,16,54,26.90
2009,07,04,16,55,26.90
2009,07,04,16,56,26.90
2009,07,04,16,57,26.80
2009,07,04,16,58,26.80
2009,07,04,16,59,26.80
2009,07,04,17,00,26.80
2009,07,04,17,01,26.90
2009,07,04,17,02,26.90
2009,07,04,17,03,26.90
2009,07,04,17,04,26.90
2009,07,04,17,05,26.80
2009,07,04,17,06,26.90
2009,07,04,17,07,26.90
2009,07,04,17,08,27.00
2009,07,04,17,09,27.10
2009,07,04,17,10,27.10
2009,07,04,17,11,27.10
2009,07,04,17,12,27.10
2009,07,04,17,13,27.10
2009,07,04,17,14,27.10
2009,07,04,17,15,27.10
2009,07,04,17,16,27.10
2009,07,04,17,17,27.10
2009,07,04,17,18,27.10
2009,07,04,17,19,27.10